Wind_Speed
13 19 23 22 19 15 14 10 10 11 12 16 16 11 14 14 15 14 15 16 17 18 18 17 17 17 16 17 17 20 21 16 22 13 16 9 6 5 8 9 7 5 6
12 16 22 21 16 16 15 13 13 11 11 11 11 8 9 11 12 11 12 15 17 17 17 16 17 17 17 17 18 19 18 10 19 9 7 4 5 6 1 4 6 8 11
19 15 16 20 19 18 17 16 15 14 12 10 11 12 9 7 10 14 14 16 17 18 17 16 17 17 17 18 16 15 14 11 12 14 3 3 3 9 5 3 6 9 13
14 14 15 19 20 19 19 16 15 14 12 11 13 12 11 9 11 11 11 13 16 16 16 16 16 17 17 16 15 13 12 11 10 9 9 8 9 3 5 5 5 13 19
16 15 16 22 21 23 21 18 16 15 13 12 12 14 15 13 11 11 11 13 14 15 16 16 15 13 13 14 13 13 13 11 8 9 10 12 13 14 7 8 5 18 15
15 13 17 23 24 23 21 17 16 16 13 13 13 13 14 12 12 12 12 12 13 14 15 12 11 11 12 13 13 12 12 12 9 10 10 8 6 9 6 4 12 14 13
15 14 14 18 23 26 22 18 16 17 13 13 13 12 13 13 13 11 11 11 14 15 14 11 11 12 12 12 12 12 13 13 13 12 11 9 8 9 9 11 10 6 10
15 15 16 20 22 27 23 19 18 17 14 13 14 12 12 12 13 12 11 11 13 12 12 10 10 11 12 15 14 13 12 13 14 13 12 10 12 13 10 7 9 5 4
18 17 18 20 23 27 23 20 19 17 15 14 13 13 11 11 11 11 12 10 9 7 10 8 10 11 11 13 12 14 13 15 14 13 14 13 16 16 15 11 8 7 3
16 15 16 20 22 25 22 19 17 17 16 14 12 11 10 10 10 11 9 10 9 10 10 7 9 12 13 13 12 12 12 14 14 15 17 18 19 19 18 15 12 8 7
17 15 15 19 24 25 23 21 19 18 16 14 12 12 12 10 7 8 9 9 6 8 9 8 9 11 12 11 11 10 10 13 16 17 18 19 19 18 17 18 16 15 14
14 14 18 21 22 25 24 23 21 19 17 15 14 13 12 12 11 11 9 7 6 7 8 9 10 11 12 13 12 10 11 14 18 20 18 21 16 18 18 17 18 18 17
14 14 15 18 20 21 25 24 22 20 19 17 17 18 15 14 13 11 9 7 7 9 8 10 14 14 12 13 13 12 13 14 17 19 18 19 20 20 17 19 19 20 15
14 12 12 15 19 20 23 25 23 22 19 22 21 20 18 15 12 10 9 8 8 9 10 11 13 12 11 12 12 13 15 15 15 15 20 19 21 20 15 19 19 18 18
15 15 13 12 19 21 23 26 27 25 24 24 22 21 18 15 12 10 9 9 9 9 11 12 13 13 12 10 11 12 15 15 15 15 16 21 16 17 17 16 23 21 19
18 18 19 22 25 28 26 24 22 25 29 25 23 20 18 15 12 11 11 10 10 10 13 14 14 14 12 11 10 13 17 17 17 14 17 18 18 16 19 19 19 24 23
20 22 22 21 31 32 30 26 27 28 29 27 23 20 17 15 13 13 14 14 13 13 15 15 16 13 12 10 11 14 18 21 23 23 18 20 22 16 16 18 20 21 22
21 20 15 24 28 29 30 31 30 28 29 27 24 21 18 16 16 17 18 17 16 17 17 17 16 14 12 11 12 14 16 19 21 23 22 23 25 24 16 17 22 24 22
12 16 24 29 32 34 33 32 28 29 25 25 25 22 21 20 20 21 20 19 18 17 19 18 17 16 14 11 11 14 18 19 20 21 21 23 24 22 22 24 24 26 26
18 25 32 35 37 36 39 34 30 28 25 26 25 23 22 23 22 22 20 19 16 16 16 17 16 15 14 11 12 14 16 20 21 20 21 20 20 20 21 26 25 26 24
20 26 30 29 30 36 38 30 28 26 28 25 25 23 23 24 24 23 20 18 15 14 15 15 16 16 13 10 11 12 15 17 19 20 21 19 18 19 20 23 25 21 23
18 23 24 24 30 34 34 30 26 29 28 26 25 24 25 25 25 24 21 18 15 16 15 15 14 13 13 11 10 12 13 13 17 17 16 17 17 18 21 21 21 22 28
15 19 23 25 25 28 32 28 28 31 29 28 27 27 26 25 23 25 23 20 16 16 16 16 14 13 11 10 11 10 11 10 13 14 15 15 16 18 20 22 22 28 30
14 21 23 23 22 24 26 31 32 30 30 29 28 26 26 23 21 22 25 21 18 16 15 14 13 12 10 10 8 8 8 9 9 9 12 15 16 19 20 22 25 28 27
13 18 21 21 22 24 27 32 32 31 27 26 24 26 25 23 21 22 23 19 15 13 18 15 12 11 11 12 10 8 8 8 8 7 10 15 18 21 22 23 24 26 27
14 16 18 22 22 25 28 30 31 30 28 25 23 23 24 22 22 21 16 12 13 15 14 13 11 9 8 10 10 9 10 8 4 9 15 17 18 20 20 21 22 25 25
Wind_Direction
158 154 147 139 132 127 117 112 112 110 132 128 118 111 81 68 57 45 33 26 20 17 15 14 12 13 17 14 11 5 4 8 1 343 329 319 304 292 269 257 273 315 297
163 163 154 150 150 139 124 117 103 106 115 132 134 133 105 73 62 44 33 25 20 18 18 16 12 8 3 2 8 10 5 357 5 352 326 341 337 1 146 53 57 44 49
168 167 165 161 153 147 136 125 108 97 98 115 137 135 127 99 55 45 40 34 26 26 27 25 20 14 11 4 2 6 9 354 352 356 329 346 324 335 341 6 358 6 19
169 165 163 162 160 151 143 130 116 110 105 109 117 122 104 87 64 55 48 39 30 31 32 30 24 20 13 8 3 357 10 9 358 0 347 342 310 317 320 344 345 353 349
171 166 166 164 158 153 145 135 123 108 103 103 103 105 97 92 87 70 58 48 38 37 36 30 26 20 15 14 9 8 2 10 6 2 343 328 317 291 271 287 325 334 334
167 157 159 159 155 153 146 138 124 108 104 104 104 103 97 93 84 69 63 58 50 44 36 32 35 29 29 29 13 13 2 15 21 7 354 349 336 336 333 316 310 306 309
160 157 158 160 153 155 151 140 132 117 113 108 102 96 93 90 86 77 77 74 55 44 32 35 41 43 46 39 35 36 29 19 32 20 2 354 354 343 323 316 316 313 310
165 164 163 162 156 157 155 148 137 129 123 113 107 100 92 90 84 79 75 68 57 38 29 44 49 54 58 53 51 43 35 27 28 27 22 18 15 7 350 327 321 309 293
165 163 161 160 155 159 158 154 141 136 127 118 111 99 93 89 90 86 82 65 75 50 33 51 59 58 62 61 49 53 36 27 35 36 35 34 31 20 7 358 349 329 306
158 159 159 154 155 161 158 152 148 143 137 128 120 111 100 103 104 95 75 76 70 40 32 52 60 62 56 54 48 56 48 29 41 32 41 41 38 29 15 9 10 1 318
160 156 150 150 154 160 163 155 153 150 145 140 134 129 117 121 120 117 103 91 64 45 43 64 64 67 62 53 53 46 54 45 43 38 34 40 40 36 20 17 17 16 10
152 149 151 149 151 162 164 162 157 159 151 149 150 148 145 139 129 123 117 98 66 52 56 73 75 72 68 51 47 56 54 52 49 40 30 40 32 38 25 23 17 20 17
145 146 151 158 159 164 166 166 169 165 159 161 157 150 147 146 136 130 130 102 71 60 75 88 76 75 70 52 53 60 57 58 55 44 34 38 35 34 29 26 21 21 19
151 157 161 161 165 168 169 170 176 168 163 160 153 149 154 152 142 137 125 104 77 83 93 95 72 64 65 61 62 62 61 57 52 46 42 42 40 35 32 32 26 24 28
169 171 166 167 168 167 174 179 177 171 169 162 157 154 155 149 150 137 123 106 94 97 103 96 77 72 64 56 62 65 62 58 53 51 47 45 50 46 45 42 36 36 34
179 177 177 166 183 184 176 173 169 164 168 163 160 157 156 151 153 135 126 120 110 110 106 101 90 82 74 64 66 76 73 66 59 52 48 42 44 47 49 49 50 46 43
186 191 193 187 178 172 166 166 163 165 168 164 162 159 158 156 144 134 127 120 120 111 100 102 98 92 77 69 77 85 82 76 70 63 60 47 43 46 47 50 52 55 49
197 198 179 176 173 164 159 155 167 164 162 160 161 162 163 154 146 135 124 126 119 110 105 97 98 98 86 82 81 89 88 82 75 68 62 57 48 43 50 52 57 58 56
204 192 178 163 157 156 158 157 152 158 162 157 162 168 165 156 150 137 135 130 120 118 107 103 100 96 91 82 83 96 90 84 76 71 65 60 54 45 48 59 56 56 54
166 150 154 153 155 160 156 152 152 158 158 163 167 168 165 160 151 146 141 130 126 124 115 109 104 104 95 85 77 88 92 85 78 71 66 56 57 52 46 51 48 46 42
116 134 145 152 149 150 150 147 153 156 168 168 165 163 164 159 158 151 147 135 134 129 122 116 108 105 100 95 84 76 81 82 80 73 64 56 54 51 49 47 45 41 45
119 134 135 137 147 151 149 147 151 161 166 167 163 162 159 159 164 164 154 143 136 124 125 122 115 110 100 81 92 86 80 82 78 69 66 59 53 57 49 49 44 43 46
122 131 133 138 145 148 148 144 151 162 163 163 160 158 160 161 165 168 160 154 145 131 128 122 116 110 101 102 100 99 88 86 87 75 65 62 58 58 58 46 43 43 39
139 137 138 139 138 143 148 154 157 159 159 154 155 157 160 162 166 170 172 169 157 147 143 132 124 115 108 116 122 119 95 85 77 72 68 63 62 59 55 49 45 42 40
143 148 143 140 138 140 145 157 158 158 152 151 151 157 159 163 165 172 176 177 176 172 152 135 128 121 116 129 107 94 96 89 81 85 77 63 55 52 48 46 42 37 35
152 141 140 137 141 144 150 157 159 159 153 152 154 154 155 158 159 158 147 160 155 146 144 136 127 119 108 115 110 102 95 92 82 82 70 61 53 50 43 39 35 32 31
Height
797 801 801 801 803 804 804 806 805 805 807 808 809 811 811 811 811 811 810 809 808 807 806 804 802 800 797 794 791 788 784 783 781 777 770 765 764 763 763 762 763 764 763
795 798 799 800 802 804 804 806 806 806 806 807 809 810 812 812 813 812 811 810 809 808 806 805 803 802 799 796 792 789 788 788 787 785 780 775 767 764 763 763 763 763 763
785 792 797 799 802 803 804 806 806 806 807 808 809 811 813 814 814 813 812 811 810 809 808 806 805 804 802 800 797 793 790 788 788 788 788 784 782 775 765 764 764 764 764
785 789 793 796 799 802 804 805 805 807 808 809 810 811 812 813 815 816 816 814 812 811 810 808 807 805 805 803 800 798 793 790 789 788 788 789 788 783 776 768 767 764 763
776 783 790 793 798 801 803 805 806 807 809 810 811 811 812 815 816 816 817 816 815 814 812 809 808 808 807 803 802 799 797 792 791 790 791 790 786 784 782 772 770 768 766
774 782 789 794 798 800 803 804 805 806 809 811 812 813 813 814 815 816 818 818 818 816 814 813 811 810 807 803 803 801 801 795 791 790 792 792 791 787 784 778 774 774 768
771 778 785 792 795 798 801 803 804 806 809 811 813 814 814 815 815 817 820 820 818 817 817 816 813 810 807 805 803 802 803 803 792 792 794 793 791 790 787 784 780 775 771
766 774 781 787 791 795 800 802 803 806 809 811 813 815 817 818 819 821 823 822 821 822 822 819 815 813 809 806 803 806 805 803 796 795 794 793 791 789 787 786 783 777 772
759 769 779 785 790 794 797 800 801 806 808 811 814 816 818 820 821 821 821 821 821 821 822 820 817 815 811 806 805 804 809 805 799 798 796 793 790 789 788 786 783 781 774
759 768 776 784 789 792 797 799 802 805 807 809 812 814 817 820 822 823 821 821 823 823 824 823 820 816 815 807 807 807 809 806 802 801 797 794 790 790 790 787 783 781 779
754 764 774 782 787 791 797 798 802 806 808 809 812 813 816 821 822 822 820 821 824 824 824 821 821 820 814 811 809 810 810 807 804 802 801 795 791 792 792 789 785 781 780
756 763 771 778 784 792 795 799 802 806 807 810 813 816 818 819 822 822 821 822 824 824 823 822 822 820 815 814 812 812 811 808 806 804 804 797 796 795 795 792 788 784 782
758 764 772 777 784 789 793 796 802 804 806 808 812 815 819 822 823 823 822 822 823 822 824 824 823 820 818 816 816 814 812 811 809 808 807 801 800 798 798 795 792 787 785
758 764 772 776 782 787 790 793 799 801 804 809 811 813 819 823 824 825 823 822 823 823 824 825 823 823 820 820 819 817 815 813 812 812 810 806 803 802 801 798 795 791 786
754 760 768 775 778 781 786 791 795 799 802 807 811 813 818 821 826 825 824 822 824 826 825 824 824 824 823 823 821 820 818 816 816 815 813 810 809 808 805 802 799 793 790
742 750 756 757 769 773 778 789 796 799 801 805 812 816 818 819 825 822 821 824 827 828 825 825 825 825 827 826 824 822 821 819 818 816 815 814 811 810 808 804 802 798 795
729 735 741 741 747 760 773 784 791 795 799 804 810 813 818 822 823 823 822 825 830 828 827 827 826 829 830 829 827 826 824 823 821 819 818 816 814 812 810 808 804 801 802
716 723 732 741 752 761 771 776 785 793 797 801 806 812 819 822 823 823 824 829 830 831 829 828 830 832 833 832 831 829 827 826 824 823 821 819 818 816 814 810 808 806 806
708 715 724 736 745 757 768 774 784 791 799 800 805 812 816 822 823 824 829 829 829 835 831 832 834 834 835 835 834 833 831 829 827 826 825 824 822 821 818 815 813 811 807
699 709 721 731 740 750 757 771 779 789 796 800 803 810 815 820 823 827 831 830 833 836 834 835 837 837 837 838 838 836 834 832 831 830 828 828 827 826 823 819 817 813 811
705 717 725 731 738 749 756 769 778 786 793 798 805 809 814 817 824 828 831 830 836 836 836 838 838 839 839 840 840 839 837 835 834 833 832 831 830 828 826 822 820 819 814
720 725 731 735 742 749 755 767 777 786 792 799 803 809 813 818 824 829 830 833 837 836 838 839 840 840 841 842 842 841 839 838 836 836 835 834 832 830 828 826 824 820 815
725 730 736 742 749 752 755 767 777 784 791 798 804 809 814 818 824 827 831 835 837 837 839 840 841 842 843 842 842 842 841 840 839 839 837 835 833 831 828 828 825 820 817
734 735 742 746 749 753 761 768 777 785 792 798 804 808 813 819 824 827 831 833 836 838 840 841 842 843 844 844 844 843 842 841 841 840 838 836 834 832 831 828 826 824 822
735 740 741 745 749 755 762 770 777 786 793 799 804 808 814 818 823 827 830 833 836 837 839 842 843 844 845 845 845 844 843 843 843 841 840 838 836 834 832 831 830 828 825
738 739 743 745 752 758 765 772 779 785 791 799 805 809 813 819 823 827 831 835 836 839 841 843 845 846 846 847 847 847 846 845 844 843 841 840 839 837 836 834 833 831 829